Flag Weather past 2 weeks in Lage, North Rhine-Westphalia, Germany

Now
42 °F

Overcast.


Feels Like: 42 °F
Forecast: 35 / 43 °F
Wind: 2 mph from East

Location: Bad Lippspringe

Current Time: Nov 21, 2014 at 12:38:08 AM

Latest Report: Nov 21, 2014 at 12:00 AM


Visibility: N/A

Pressure: 30.35 "Hg

Humidity: 83%

Dew point: 37 °F

Location of LageLocation

Historic Weather in Lage — Graph

°F

Lage temperature yesterday

Maximum temperature yesterday: 44 °F (at 12:00 AM)
Minimum temperature yesterday: 41 °F (at 6:00 PM)
Average temperature yesterday: 43 °F

Past Weeks' High & Low Weather Summary

 TemperatureHumidityPressure
High57 °F (Nov 12, 3:00 PM)99% (Nov 6, 12:00 AM)30.37 "Hg (Nov 6, 12:00 AM)
Low39 °F (Nov 7, 6:00 AM)57% (Nov 8, 2:00 PM)29.50 "Hg (Nov 16, 6:00 AM)
Average47 °F85%29.84 "Hg
* Reported Nov 5 11:00 PM — Nov 20 11:00 PM, Lage, Weather by CustomWeather, © 2014

Note: Actual official high and low records may vary slightly from our data, if they occured in-between our weather recording intervals... More about our weather records

Advertising

Lage weather history for previous 24 hours

 ConditionsComfort  
Time TempWeatherWind HumidityBarometerVisibility
11:00 PM
Nov 20
42 °FOvercast.2 mph83%30.35 "HgN/A
10:00 PM42 °FOvercast.2 mph81%30.37 "HgN/A
9:00 PM41 °FOvercast.1 mph83%30.36 "HgN/A
8:00 PM41 °FOvercast.1 mph81%30.36 "HgN/A
7:00 PM41 °FOvercast.5 mph81%30.36 "HgN/A
6:00 PM41 °FOvercast.6 mph82%30.35 "HgN/A
5:00 PM42 °FOvercast.5 mph83%30.35 "HgN/A
4:00 PM42 °FOvercast.3 mph83%30.35 "HgN/A
3:00 PM43 °FOvercast.2 mph84%30.36 "HgN/A
2:00 PM43 °FOvercast.2 mph85%30.35 "HgN/A
1:00 PM43 °FOvercast.3 mph85%30.36 "HgN/A
12:00 PM43 °FLow clouds.3 mph89%30.37 "HgN/A
11:00 AM43 °FLow clouds.3 mph87%30.37 "HgN/A
10:00 AM43 °FLow clouds.3 mph89%30.36 "HgN/A
9:00 AM43 °FLow clouds.2 mph90%30.36 "HgN/A
8:00 AM43 °FOvercast.2 mph90%30.36 "HgN/A
7:00 AM43 °FLow clouds.2 mph93%30.35 "HgN/A
6:00 AM43 °FLow clouds.2 mph92%30.33 "HgN/A
5:00 AM43 °FOvercast.2 mph92%30.33 "HgN/A
4:00 AM44 °FOvercast.1 mph92%30.32 "HgN/A
3:00 AM44 °FOvercast.1 mph93%30.32 "HgN/A
2:00 AM43 °FLow clouds.1 mph93%30.31 "HgN/A
12:00 AM44 °FLow clouds.1 mph93%30.32 "HgN/A
Weather by CustomWeather, © 2014

See weather overviewHow to use our weather pages